TimeEET,TemperatureF,Dew PointF,Humidity,Sea Level PressureIn,VisibilityMPH,Wind Direction,Wind SpeedMPH,Gust SpeedMPH,PrecipitationIn,Events,Conditions,WindDirDegrees,DateUTC
12:50 AM,35.6,33.8,93,30.01,6.2,South,6.9,-,N/A,,Mostly Cloudy,190,2012-12-11 22:50:00
1:50 AM,35.6,33.8,93,30.04,6.2,East,3.5,-,N/A,,Mostly Cloudy,100,2012-12-11 23:50:00
2:00 AM,35,34,92,,6,East,3.5,,,,Partly Cloudy,100,2012-12-12 00:00:00
2:50 AM,35.6,32.0,87,30.04,6.2,ENE,4.6,-,N/A,,Mostly Cloudy,60,2012-12-12 00:50:00
3:50 AM,33.8,32.0,93,30.06,6.2,ENE,4.6,-,N/A,,Mostly Cloudy,60,2012-12-12 01:50:00
4:50 AM,33.8,32.0,93,30.06,6.2,ENE,3.5,-,N/A,,Mostly Cloudy,70,2012-12-12 02:50:00
5:50 AM,33.8,32.0,93,30.09,6.2,NNE,5.8,-,N/A,,Mostly Cloudy,30,2012-12-12 03:50:00
6:50 AM,35.6,30.2,81,30.12,6.2,ENE,5.8,-,N/A,,Mostly Cloudy,60,2012-12-12 04:50:00
7:50 AM,39.2,32.0,75,30.12,6.2,NE,3.5,-,N/A,,Mostly Cloudy,50,2012-12-12 05:50:00
8:00 AM,39,31,64,,7,NE,3.5,,,,Partly Cloudy,50,2012-12-12 06:00:00
8:50 AM,41.0,30.2,65,30.12,6.2,SSW,3.5,-,N/A,,Scattered Clouds,200,2012-12-12 06:50:00
9:50 AM,42.8,28.4,57,30.12,6.2,West,3.5,-,N/A,,Scattered Clouds,270,2012-12-12 07:50:00
10:50 AM,44.6,30.2,57,30.12,6.2,West,5.8,-,N/A,,Scattered Clouds,270,2012-12-12 08:50:00
11:50 AM,42.8,30.2,61,30.12,6.2,NW,6.9,-,N/A,,Scattered Clouds,310,2012-12-12 09:50:00
12:50 PM,42.8,32.0,66,30.12,6.2,WNW,6.9,19.6,N/A,,Scattered Clouds,300,2012-12-12 10:50:00
1:50 PM,42.8,32.0,66,30.12,6.2,WNW,4.6,-,N/A,,Scattered Clouds,290,2012-12-12 11:50:00
2:00 PM,43,31,50,,6,WNW,4.6,,,,Partly Cloudy,290,2012-12-12 12:00:00
2:50 PM,42.8,32.0,66,30.12,6.2,NW,4.6,-,N/A,,Scattered Clouds,310,2012-12-12 12:50:00
3:50 PM,41.0,32.0,70,30.12,6.2,NNW,6.9,-,N/A,,Scattered Clouds,340,2012-12-12 13:50:00
4:50 PM,39.2,30.2,70,30.15,6.2,SE,3.5,-,N/A,,Scattered Clouds,130,2012-12-12 14:50:00
5:50 PM,35.6,30.2,81,30.12,6.2,Variable,2.3,-,N/A,,Scattered Clouds,0,2012-12-12 15:50:00
6:50 PM,32.0,30.2,93,30.12,6.2,ENE,5.8,-,N/A,,Scattered Clouds,60,2012-12-12 16:50:00
7:50 PM,32.0,30.2,93,30.12,6.2,ENE,4.6,-,N/A,,Scattered Clouds,70,2012-12-12 17:50:00
8:00 PM,32,29,86,,6,ENE,4.6,,,,Partly Cloudy,70,2012-12-12 18:00:00
8:50 PM,32.0,30.2,93,30.12,6.2,ENE,4.6,-,N/A,,Scattered Clouds,70,2012-12-12 18:50:00
9:50 PM,32.0,28.4,87,30.12,6.2,East,4.6,-,N/A,,Scattered Clouds,80,2012-12-12 19:50:00
10:50 PM,32.0,28.4,87,30.12,6.2,ENE,3.5,-,N/A,,Scattered Clouds,60,2012-12-12 20:50:00
11:50 PM,32.0,28.4,87,30.12,6.2,ENE,4.6,-,N/A,,Scattered Clouds,60,2012-12-12 21:50:00